date:2025-07-03T03:11:31+00:00
validtle:1
satid:63428
launchyear:2025
epoch:25183.85612872
epochday:183
tleage:1
tleclassification:U
active:1
name:2025-067A
meananomly:259.2902
meanmotion:15.5087
rightascension:0.0000
declination:0.0000
semimajoraxis:6792.3309018436
altitudeatperigee:409
altitudeatapogee:419
inclination:54.9916
eccentricity:0.0007644
argumentofperigree:100.8992
nickname:2025-067A
idesg:25067A  
cosparid:2025-067A
altkm:416.26703151713
velkms:7.6618656151982
velkmh:27583
onumepoch:1433
onumnow:22228.23
otype:1
otypedesc:Low Earth Orbit (LEO)
status:1
timestamp:2025-07-02T20:32:50+00:00
nowjuliandate:2460859.6329998
nowepochdate:25184.1329976852
TLE:
2025-067A
1 63428U 25067A   25183.85612872  .00070997  00000+0  12054-2 0  9996
2 63428  54.9916 148.1591 0007644 100.8992 259.2902 15.50867530 14338